Regional Weather Roundup
Issued by NWS State College, PA

Home | Current Version | Previous Version | Text Only | Print | Product List | Glossary Off
Versions: 1 2 3 4 5 6 7 8 9 10 11 12 13 14 15 16 17 18 19 20 21 22 23 24 25 26 27 28 29 30 31 32 33 34 35 36 37 38 39 40 41 42 43 44 45 46 47 48 49 50

000
ASUS41 KCTP 232210
RWRCTP

REGIONAL WEATHER ROUNDUP
NATIONAL WEATHER SERVICE STATE COLLEGE PA
600 PM EDT THU OCT 23 2014

Note: "fair" indicates few or no clouds below 12,000 feet with no
significant weather and/or obstructions to visibility.

* = STATION THAT DOES NOT REPORT PRECIPITATION /E.G. RAIN...SNOW...ETC/
    THUNDER OR FOG.

PAZ002>004-007>009-013>016-020>023-029>032-232300-
WESTERN PENNSYLVANIA

CITY           SKY/WX    TMP DP  RH WIND       PRES   REMARKS
ERIE           CLEAR     56  45  66 W7        30.08F
MEADVILLE      CLEAR     52  41  66 NW10      30.08S
FRANKLIN*      CLEAR     54  37  54 NW6       30.08S
NEW CASTLE       N/A     56  42  59 NW9G16    30.09S
BEAVER COUNTY  CLEAR     57  43  58 NW5G16    30.07S
BUTLER*        CLEAR     55  39  54 NW7G16    30.08R
PITTSBURGH INT PTCLDY    58  42  55 NW15      30.05F
PITTSBURGH     CLEAR     58  39  49 NW14G23   30.04R
INDIANA*       CLEAR     59  39  47 NW9G17    30.05R
LATROBE        NOT AVBL
WASHINGTON CO* CLEAR     57  43  58 NW8       30.08S
$$

PAZ004>006-010>012-017>019-024>028-033>037-041-042-045-046-049>053-232300-
CENTRAL PENNSYLVANIA

CITY           SKY/WX    TMP DP  RH WIND       PRES   REMARKS
BRADFORD       CLEAR     51  36  56 NW14      30.01S
DUBOIS         CLEAR     55  37  50 NW14G21   30.00R
CLEARFIELD     CLEAR     57  38  48 NW16G24   29.97R
JOHNSTOWN      CLEAR     54  37  52 NW20G29   29.99R
ALTOONA        CLOUDY    59  39  47 NW17G28   29.94S
STATE COLLEGE  MOCLDY    59  39  47 N12G21    29.92S
WILLIAMSPORT   CLOUDY    59  43  55 NW10      29.88R
SELINSGROVE    CLOUDY    61  44  53 NW17G25   29.88R
FT INDIANTOWN  CLOUDY    59  48  67 N8        29.85R
CAPITAL CITY   CLOUDY    62  45  53 N5        29.85R
HARRISBURG     CLOUDY    60  44  55 N6        29.84R
YORK           CLOUDY    61  44  53 NW15      29.84R
$$

PAZ038>040-043-044-047-048-054-055-060>062-067>071-232300-
EASTERN PENNSYLVANIA

CITY           SKY/WX    TMP DP  RH WIND       PRES   REMARKS
SCRANTON       CLOUDY    50  42  74 N10G16    29.87R
MOUNT POCONO   LGT RAIN  44  41  89 NW18G29   29.81R
ALLENTOWN      CLOUDY    53  43  68 N12G22    29.81R
QUAKERTOWN*    MOCLDY    52  45  76 N7G25     29.81S
READING        CLOUDY    55  43  63 N13G24    29.84R
LANCASTER      CLOUDY    56  44  64 N8        29.85R
COATESVILLE    CLOUDY    54  45  71 N16G29    29.83R
POTTSTOWN      MOCLDY    53  43  68 NW10G20   29.82R
BLUE BELL      CLOUDY    55  45  67 N9G21     29.80R
DOYLESTOWN     CLOUDY    52  44  74 NW13G22   29.79R
WILLOW GROVE   NOT AVBL
NORTH PHILA    CLOUDY    56  42  59 NW15      29.80R
PHILADELPHIA   CLOUDY    56  43  61 N18G25    29.80R
$$



USA.gov is the U.S. government's official web portal to all federal, state and local government web resources and services.